Location: PACMO
(41.3967°N, 90.3760°W)
Time: 00:29:13
(UTC-05:00)

NOAA 19 - Visible Passes

Search period start: 29 August 2016 00:00
Search period end: 08 September 2016 00:00
Orbit: 842 x 862 km, 99.0° (Epoch: 28 August)

Date Brightness Start Highest point End Pass type
(mag) Time Alt. Az. Time Alt. Az. Time Alt. Az.
29 Aug 5.4 04:01:52 10° NNE 04:07:25 70° ESE 04:09:36 38° S visible
29 Aug 6.8 05:43:59 10° NNW 05:47:30 18° WNW 05:51:01 10° W visible
30 Aug 5.7 03:50:33 10° NNE 03:55:59 55° E 03:57:59 37° SSE visible
30 Aug 6.6 05:32:10 10° NNW 05:36:15 22° WNW 05:40:01 11° WSW visible
31 Aug 6.1 03:39:15 10° NNE 03:44:33 44° E 03:46:21 33° SE visible
31 Aug 6.3 05:20:27 10° N 05:24:59 27° WNW 05:28:23 15° WSW visible
01 Sep 6.5 03:28:03 10° NNE 03:33:05 35° E 03:34:44 29° SE visible
01 Sep 6.0 05:08:49 10° N 05:13:41 33° WNW 05:16:45 19° WSW visible
02 Sep 6.8 03:16:55 10° NE 03:21:37 28° E 03:23:06 24° ESE visible
02 Sep 5.8 04:57:14 10° N 05:02:22 40° WNW 05:05:08 24° WSW visible
03 Sep 7.1 03:05:52 10° NE 03:10:06 22° E 03:11:29 20° ESE visible
03 Sep 5.5 04:45:42 10° N 04:51:03 51° WNW 04:53:31 30° SW visible
04 Sep 7.4 02:54:59 10° NE 02:58:35 17° E 02:59:52 16° ESE visible
04 Sep 5.2 04:34:13 10° N 04:39:42 63° WNW 04:41:54 36° SW visible
05 Sep 7.6 02:44:23 10° ENE 02:47:02 13° E 02:48:14 13° ESE visible
05 Sep 5.1 04:22:46 10° NNE 04:28:20 79° WNW 04:30:16 43° SSW visible
06 Sep 7.9 02:34:58 10° E 02:35:29 10° E 02:36:00 10° E visible
06 Sep 5.2 04:11:21 10° NNE 04:16:56 83° ESE 04:18:38 47° S visible
06 Sep 6.9 05:53:54 10° NNW 05:56:54 15° WNW 05:59:54 10° W visible
07 Sep 5.4 04:00:00 10° NNE 04:05:32 66° ESE 04:07:00 48° SSE visible
07 Sep 6.7 05:41:58 10° NNW 05:45:40 19° WNW 05:49:02 11° W visible
